Time,TemperatureF,DewpointF,PressureIn,WindDirection,WindDirectionDegrees,WindSpeedMPH,WindSpeedGustMPH,Humidity,HourlyPrecipIn,Conditions,Clouds,dailyrainin,SoftwareType,DateUTC
2013-05-18 00:03:00,65.0,38.0,30.24,ENE,61,0.0,-999.0,37,-99.99,,,-99.99,,2013-05-18 04:03:00,
2013-05-18 00:12:00,65.0,38.0,30.24,ENE,61,0.0,-999.0,37,-99.99,,,-99.99,,2013-05-18 04:12:00,
2013-05-18 00:23:00,65.0,39.0,30.24,ENE,65,0.0,-999.0,38,-99.99,,,-99.99,,2013-05-18 04:23:00,
2013-05-18 00:33:00,64.0,40.0,30.24,ENE,68,0.0,-999.0,41,-99.99,,,-99.99,,2013-05-18 04:33:00,
2013-05-18 00:43:00,64.0,40.0,30.24,ENE,68,0.0,-999.0,41,-99.99,,,-99.99,,2013-05-18 04:43:00,
2013-05-18 00:52:00,63.0,40.0,30.25,ENE,69,0.0,-999.0,43,-99.99,,,-99.99,,2013-05-18 04:52:00,
2013-05-18 01:02:00,63.0,42.0,30.25,ENE,69,3.0,-999.0,46,-99.99,,,-99.99,,2013-05-18 05:02:00,
2013-05-18 01:13:00,63.0,42.0,30.25,ENE,69,3.0,-999.0,46,-99.99,,,-99.99,,2013-05-18 05:13:00,
2013-05-18 01:22:00,62.0,42.0,30.25,ENE,68,0.0,-999.0,47,-99.99,,,-99.99,,2013-05-18 05:22:00,
2013-05-18 01:32:00,61.0,42.0,30.25,ENE,69,0.0,-999.0,50,-99.99,,,-99.99,,2013-05-18 05:32:00,
2013-05-18 01:42:00,61.0,42.0,30.25,ENE,69,0.0,-999.0,50,-99.99,,,-99.99,,2013-05-18 05:42:00,
2013-05-18 01:52:00,60.0,42.0,30.25,ENE,68,0.0,-999.0,51,-99.99,,,-99.99,,2013-05-18 05:52:00,
2013-05-18 02:02:00,60.0,42.0,30.24,ENE,69,0.0,-999.0,52,-99.99,,,-99.99,,2013-05-18 06:02:00,
2013-05-18 02:11:00,60.0,42.0,30.24,ENE,69,0.0,-999.0,52,-99.99,,,-99.99,,2013-05-18 06:11:00,
2013-05-18 02:22:00,60.0,42.0,30.24,ENE,68,0.0,-999.0,52,-99.99,,,-99.99,,2013-05-18 06:22:00,
2013-05-18 02:32:00,59.0,42.0,30.25,ENE,68,1.0,-999.0,53,-99.99,,,-99.99,,2013-05-18 06:32:00,
2013-05-18 02:42:00,59.0,42.0,30.25,ENE,68,1.0,-999.0,53,-99.99,,,-99.99,,2013-05-18 06:42:00,
2013-05-18 02:52:00,59.0,42.0,30.25,ENE,68,1.0,-999.0,53,-99.99,,,-99.99,,2013-05-18 06:52:00,
2013-05-18 03:01:00,59.0,42.0,30.25,ENE,68,0.0,-999.0,54,-99.99,,,-99.99,,2013-05-18 07:01:00,
2013-05-18 03:12:00,59.0,42.0,30.25,ENE,68,0.0,-999.0,54,-99.99,,,-99.99,,2013-05-18 07:12:00,
2013-05-18 03:21:00,58.0,41.0,30.26,ENE,68,1.0,-999.0,54,-99.99,,,-99.99,,2013-05-18 07:21:00,
2013-05-18 03:32:00,59.0,42.0,30.26,ENE,68,0.0,-999.0,54,-99.99,,,-99.99,,2013-05-18 07:32:00,
2013-05-18 03:42:00,59.0,42.0,30.26,ENE,68,0.0,-999.0,54,-99.99,,,-99.99,,2013-05-18 07:42:00,
2013-05-18 03:52:00,59.0,42.0,30.26,ENE,69,0.0,-999.0,54,-99.99,,,-99.99,,2013-05-18 07:52:00,
2013-05-18 04:02:00,58.0,42.0,30.26,ENE,68,0.0,-999.0,56,-99.99,,,-99.99,,2013-05-18 08:02:00,
2013-05-18 04:11:00,58.0,42.0,30.26,ENE,68,0.0,-999.0,56,-99.99,,,-99.99,,2013-05-18 08:11:00,
2013-05-18 04:21:00,58.0,43.0,30.26,ENE,69,0.0,-999.0,57,-99.99,,,-99.99,,2013-05-18 08:21:00,
2013-05-18 04:32:00,58.0,43.0,30.26,ENE,68,0.0,-999.0,58,-99.99,,,-99.99,,2013-05-18 08:32:00,
2013-05-18 04:42:00,58.0,43.0,30.26,ENE,68,0.0,-999.0,58,-99.99,,,-99.99,,2013-05-18 08:42:00,
2013-05-18 04:52:00,58.0,43.0,30.27,ENE,68,0.0,-999.0,58,-99.99,,,-99.99,,2013-05-18 08:52:00,
2013-05-18 05:02:00,58.0,43.0,30.27,ENE,68,0.0,-999.0,58,-99.99,,,-99.99,,2013-05-18 09:02:00,
2013-05-18 05:11:00,58.0,43.0,30.27,ENE,68,0.0,-999.0,58,-99.99,,,-99.99,,2013-05-18 09:11:00,
2013-05-18 05:22:00,57.0,43.0,30.27,ENE,68,0.0,-999.0,60,-99.99,,,-99.99,,2013-05-18 09:22:00,
2013-05-18 05:33:00,58.0,44.0,30.28,ENE,68,0.0,-999.0,60,-99.99,,,-99.99,,2013-05-18 09:33:00,
2013-05-18 05:43:00,58.0,44.0,30.28,ENE,68,0.0,-999.0,60,-99.99,,,-99.99,,2013-05-18 09:43:00,
2013-05-18 05:53:00,57.0,44.0,30.28,ENE,68,0.0,-999.0,61,-99.99,,,-99.99,,2013-05-18 09:53:00,
2013-05-18 06:03:00,58.0,45.0,30.29,ENE,69,0.0,-999.0,61,-99.99,,,-99.99,,2013-05-18 10:03:00,
2013-05-18 06:12:00,58.0,45.0,30.29,ENE,69,0.0,-999.0,61,-99.99,,,-99.99,,2013-05-18 10:12:00,
2013-05-18 06:23:00,59.0,44.0,30.29,ENE,68,0.0,-999.0,58,-99.99,,,-99.99,,2013-05-18 10:23:00,
2013-05-18 06:33:00,58.0,44.0,30.30,ENE,68,0.0,-999.0,60,-99.99,,,-99.99,,2013-05-18 10:33:00,
2013-05-18 06:42:00,58.0,44.0,30.30,ENE,68,0.0,-999.0,60,-99.99,,,-99.99,,2013-05-18 10:42:00,
2013-05-18 06:52:00,58.0,45.0,30.30,ENE,68,0.0,-999.0,61,-99.99,,,-99.99,,2013-05-18 10:52:00,
2013-05-18 07:03:00,59.0,45.0,30.31,ENE,69,0.0,-999.0,59,-99.99,,,-99.99,,2013-05-18 11:03:00,
2013-05-18 07:12:00,59.0,45.0,30.31,ENE,69,0.0,-999.0,59,-99.99,,,-99.99,,2013-05-18 11:12:00,
2013-05-18 07:22:00,59.0,45.0,30.31,ENE,69,0.0,-999.0,59,-99.99,,,-99.99,,2013-05-18 11:22:00,
2013-05-18 07:33:00,59.0,45.0,30.32,ENE,68,0.0,-999.0,60,-99.99,,,-99.99,,2013-05-18 11:33:00,
2013-05-18 07:42:00,59.0,45.0,30.32,ENE,68,0.0,-999.0,60,-99.99,,,-99.99,,2013-05-18 11:42:00,
2013-05-18 07:52:00,59.0,45.0,30.32,ENE,68,0.0,-999.0,60,-99.99,,,-99.99,,2013-05-18 11:52:00,
2013-05-18 08:02:00,60.0,46.0,30.32,ENE,68,0.0,-999.0,59,-99.99,,,-99.99,,2013-05-18 12:02:00,
2013-05-18 08:12:00,60.0,46.0,30.32,ENE,68,0.0,-999.0,59,-99.99,,,-99.99,,2013-05-18 12:12:00,
2013-05-18 08:23:00,60.0,46.0,30.32,ENE,69,0.0,-999.0,59,-99.99,,,-99.99,,2013-05-18 12:23:00,
2013-05-18 08:33:00,60.0,45.0,30.33,ENE,68,0.0,-999.0,58,-99.99,,,-99.99,,2013-05-18 12:33:00,
2013-05-18 08:42:00,60.0,45.0,30.33,ENE,68,0.0,-999.0,58,-99.99,,,-99.99,,2013-05-18 12:42:00,
2013-05-18 08:52:00,60.0,45.0,30.33,ENE,69,0.0,-999.0,58,-99.99,,,-99.99,,2013-05-18 12:52:00,
2013-05-18 09:01:00,60.0,45.0,30.33,ENE,68,0.0,-999.0,58,-99.99,,,-99.99,,2013-05-18 13:01:00,
2013-05-18 09:11:00,60.0,45.0,30.33,ENE,68,0.0,-999.0,58,-99.99,,,-99.99,,2013-05-18 13:11:00,
2013-05-18 09:21:00,61.0,46.0,30.34,ENE,68,0.0,-999.0,57,-99.99,,,-99.99,,2013-05-18 13:21:00,
2013-05-18 09:33:00,62.0,45.0,30.34,ENE,69,2.0,-999.0,53,-99.99,,,-99.99,,2013-05-18 13:33:00,
2013-05-18 09:43:00,62.0,45.0,30.34,ENE,69,2.0,-999.0,53,-99.99,,,-99.99,,2013-05-18 13:43:00,
2013-05-18 09:52:00,63.0,45.0,30.34,ENE,69,3.0,-999.0,52,-99.99,,,-99.99,,2013-05-18 13:52:00,
2013-05-18 10:03:00,63.0,43.0,30.34,ENE,70,2.0,-999.0,48,-99.99,,,-99.99,,2013-05-18 14:03:00,
2013-05-18 10:12:00,63.0,43.0,30.34,ENE,70,2.0,-999.0,48,-99.99,,,-99.99,,2013-05-18 14:12:00,
2013-05-18 10:22:00,63.0,42.0,30.34,ENE,71,3.0,-999.0,47,-99.99,,,-99.99,,2013-05-18 14:22:00,
2013-05-18 10:33:00,64.0,44.0,30.35,ENE,71,0.0,-999.0,48,-99.99,,,-99.99,,2013-05-18 14:33:00,
2013-05-18 10:42:00,64.0,44.0,30.35,ENE,71,0.0,-999.0,48,-99.99,,,-99.99,,2013-05-18 14:42:00,
2013-05-18 10:54:00,64.0,44.0,30.35,ENE,76,3.0,-999.0,49,-99.99,,,-99.99,,2013-05-18 14:54:00,
2013-05-18 11:03:00,64.0,44.0,30.35,ESE,116,3.0,-999.0,49,-99.99,,,-99.99,,2013-05-18 15:03:00,
2013-05-18 11:13:00,64.0,44.0,30.35,ESE,116,3.0,-999.0,49,-99.99,,,-99.99,,2013-05-18 15:13:00,
2013-05-18 11:23:00,65.0,45.0,30.35,ESE,118,0.0,-999.0,49,-99.99,,,-99.99,,2013-05-18 15:23:00,
2013-05-18 11:33:00,64.0,45.0,30.35,SE,125,3.0,-999.0,50,-99.99,,,-99.99,,2013-05-18 15:33:00,
2013-05-18 11:43:00,64.0,45.0,30.35,SE,125,3.0,-999.0,50,-99.99,,,-99.99,,2013-05-18 15:43:00,
2013-05-18 11:53:00,64.0,45.0,30.34,SE,126,4.0,-999.0,51,-99.99,,,-99.99,,2013-05-18 15:53:00,
2013-05-18 12:03:00,65.0,46.0,30.34,SE,131,0.0,-999.0,51,-99.99,,,-99.99,,2013-05-18 16:03:00,
2013-05-18 12:13:00,65.0,46.0,30.34,SE,131,0.0,-999.0,51,-99.99,,,-99.99,,2013-05-18 16:13:00,
2013-05-18 12:22:00,64.0,45.0,30.34,SE,131,2.0,-999.0,51,-99.99,,,-99.99,,2013-05-18 16:22:00,
2013-05-18 12:33:00,65.0,46.0,30.34,SE,131,2.0,-999.0,51,-99.99,,,-99.99,,2013-05-18 16:33:00,
2013-05-18 12:42:00,65.0,46.0,30.34,SE,131,2.0,-999.0,51,-99.99,,,-99.99,,2013-05-18 16:42:00,
2013-05-18 12:52:00,65.0,47.0,30.34,SE,134,0.0,-999.0,52,-99.99,,,-99.99,,2013-05-18 16:52:00,
2013-05-18 13:02:00,64.0,47.0,30.34,ESE,122,2.0,-999.0,53,-99.99,,,-99.99,,2013-05-18 17:02:00,
2013-05-18 13:12:00,64.0,47.0,30.34,ESE,122,2.0,-999.0,53,-99.99,,,-99.99,,2013-05-18 17:12:00,
2013-05-18 13:22:00,64.0,47.0,30.34,SE,126,4.0,-999.0,54,-99.99,,,-99.99,,2013-05-18 17:22:00,
2013-05-18 13:33:00,63.0,48.0,30.33,ESE,116,2.0,-999.0,57,-99.99,,,-99.99,,2013-05-18 17:33:00,
2013-05-18 13:42:00,63.0,48.0,30.33,ESE,116,2.0,-999.0,57,-99.99,,,-99.99,,2013-05-18 17:42:00,
2013-05-18 13:52:00,63.0,47.0,30.33,ESE,116,7.0,-999.0,56,-99.99,,,-99.99,,2013-05-18 17:52:00,
2013-05-18 14:01:00,63.0,48.0,30.33,ESE,108,3.0,-999.0,59,-99.99,,,-99.99,,2013-05-18 18:01:00,
2013-05-18 14:12:00,63.0,48.0,30.33,ESE,108,3.0,-999.0,59,-99.99,,,-99.99,,2013-05-18 18:12:00,
2013-05-18 14:21:00,63.0,48.0,30.33,ESE,114,4.0,-999.0,59,-99.99,,,-99.99,,2013-05-18 18:21:00,
2013-05-18 14:32:00,62.0,47.0,30.33,ESE,107,3.0,-999.0,59,-99.99,,,-99.99,,2013-05-18 18:32:00,
2013-05-18 14:42:00,62.0,47.0,30.33,ESE,107,3.0,-999.0,59,-99.99,,,-99.99,,2013-05-18 18:42:00,
2013-05-18 14:52:00,62.0,48.0,30.33,ESE,111,6.0,-999.0,61,-99.99,,,-99.99,,2013-05-18 18:52:00,
2013-05-18 15:02:00,62.0,49.0,30.33,ESE,115,6.0,-999.0,62,-99.99,,,-99.99,,2013-05-18 19:02:00,
2013-05-18 15:12:00,62.0,49.0,30.33,ESE,115,6.0,-999.0,62,-99.99,,,-99.99,,2013-05-18 19:12:00,
2013-05-18 15:22:00,62.0,49.0,30.33,ESE,110,1.0,-999.0,63,-99.99,,,-99.99,,2013-05-18 19:22:00,
2013-05-18 15:32:00,62.0,50.0,30.33,ESE,109,2.0,-999.0,64,-99.99,,,-99.99,,2013-05-18 19:32:00,
2013-05-18 15:42:00,62.0,50.0,30.33,ESE,109,2.0,-999.0,64,-99.99,,,-99.99,,2013-05-18 19:42:00,
2013-05-18 15:52:00,62.0,50.0,30.33,ESE,109,1.0,-999.0,64,-99.99,,,-99.99,,2013-05-18 19:52:00,
2013-05-18 16:02:00,63.0,51.0,30.34,ESE,109,3.0,-999.0,65,-99.99,,,-99.99,,2013-05-18 20:02:00,
2013-05-18 16:11:00,63.0,51.0,30.34,ESE,109,3.0,-999.0,65,-99.99,,,-99.99,,2013-05-18 20:11:00,
2013-05-18 16:22:00,63.0,51.0,30.34,ESE,113,6.0,-999.0,64,-99.99,,,-99.99,,2013-05-18 20:22:00,
2013-05-18 16:32:00,63.0,51.0,30.34,ESE,122,4.0,-999.0,65,-99.99,,,-99.99,,2013-05-18 20:32:00,
2013-05-18 16:42:00,63.0,51.0,30.34,ESE,122,4.0,-999.0,65,-99.99,,,-99.99,,2013-05-18 20:42:00,
2013-05-18 16:52:00,63.0,51.0,30.34,ESE,122,2.0,-999.0,64,-99.99,,,-99.99,,2013-05-18 20:52:00,
2013-05-18 17:01:00,63.0,51.0,30.34,ESE,123,0.0,-999.0,64,-99.99,,,-99.99,,2013-05-18 21:01:00,
2013-05-18 17:12:00,63.0,51.0,30.34,ESE,123,0.0,-999.0,64,-99.99,,,-99.99,,2013-05-18 21:12:00,
2013-05-18 17:21:00,63.0,51.0,30.33,SE,124,0.0,-999.0,65,-99.99,,,-99.99,,2013-05-18 21:21:00,
2013-05-18 17:33:00,62.0,50.0,30.34,ESE,123,5.0,-999.0,64,-99.99,,,-99.99,,2013-05-18 21:33:00,
2013-05-18 17:43:00,62.0,50.0,30.34,ESE,123,5.0,-999.0,64,-99.99,,,-99.99,,2013-05-18 21:43:00,
2013-05-18 17:53:00,63.0,51.0,30.33,ESE,121,1.0,-999.0,65,-99.99,,,-99.99,,2013-05-18 21:53:00,
2013-05-18 18:03:00,62.0,50.0,30.33,SE,129,0.0,-999.0,65,-99.99,,,-99.99,,2013-05-18 22:03:00,
2013-05-18 18:12:00,62.0,50.0,30.32,SE,129,1.0,-999.0,65,-99.99,,,-99.99,,2013-05-18 22:12:00,
2013-05-18 18:23:00,62.0,50.0,30.32,SE,129,1.0,-999.0,65,-99.99,,,-99.99,,2013-05-18 22:23:00,
2013-05-18 18:33:00,62.0,50.0,30.33,SE,137,2.0,-999.0,65,-99.99,,,-99.99,,2013-05-18 22:33:00,
2013-05-18 18:42:00,62.0,50.0,30.33,SE,137,1.0,-999.0,64,-99.99,,,-99.99,,2013-05-18 22:42:00,
2013-05-18 18:52:00,62.0,50.0,30.33,SE,137,1.0,-999.0,64,-99.99,,,-99.99,,2013-05-18 22:52:00,
2013-05-18 19:02:00,62.0,51.0,30.33,SE,138,2.0,-999.0,66,-99.99,,,-99.99,,2013-05-18 23:02:00,
2013-05-18 19:12:00,62.0,51.0,30.33,SE,138,2.0,-999.0,66,-99.99,,,-99.99,,2013-05-18 23:12:00,
2013-05-18 19:22:00,62.0,51.0,30.33,SE,139,0.0,-999.0,66,-99.99,,,-99.99,,2013-05-18 23:22:00,
2013-05-18 19:32:00,61.0,50.0,30.34,SE,135,4.0,-999.0,67,-99.99,,,-99.99,,2013-05-18 23:32:00,
2013-05-18 19:42:00,61.0,50.0,30.34,SE,135,4.0,-999.0,67,-99.99,,,-99.99,,2013-05-18 23:42:00,
2013-05-18 19:52:00,61.0,50.0,30.33,SE,135,0.0,-999.0,67,-99.99,,,-99.99,,2013-05-18 23:52:00,
2013-05-18 20:01:00,61.0,51.0,30.35,SE,137,1.0,-999.0,69,-99.99,,,-99.99,,2013-05-19 00:01:00,
2013-05-18 20:12:00,61.0,51.0,30.35,SE,137,1.0,-999.0,69,-99.99,,,-99.99,,2013-05-19 00:12:00,
2013-05-18 20:21:00,61.0,51.0,30.35,SE,137,2.0,-999.0,69,-99.99,,,-99.99,,2013-05-19 00:21:00,
2013-05-18 20:32:00,61.0,50.0,30.34,SE,137,0.0,-999.0,67,-99.99,,,-99.99,,2013-05-19 00:32:00,
2013-05-18 20:41:00,61.0,50.0,30.34,SE,137,0.0,-999.0,67,-99.99,,,-99.99,,2013-05-19 00:41:00,
2013-05-18 20:52:00,61.0,50.0,30.34,SE,137,0.0,-999.0,68,-99.99,,,-99.99,,2013-05-19 00:52:00,
2013-05-18 21:01:00,61.0,50.0,30.34,SE,137,1.0,-999.0,68,-99.99,,,-99.99,,2013-05-19 01:01:00,
2013-05-18 21:11:00,61.0,50.0,30.34,SE,137,1.0,-999.0,68,-99.99,,,-99.99,,2013-05-19 01:11:00,
2013-05-18 21:21:00,61.0,50.0,30.34,SE,136,0.0,-999.0,68,-99.99,,,-99.99,,2013-05-19 01:21:00,
2013-05-18 21:32:00,61.0,50.0,30.35,SE,137,0.0,-999.0,68,-99.99,,,-99.99,,2013-05-19 01:32:00,
2013-05-18 21:42:00,61.0,50.0,30.35,SE,137,0.0,-999.0,68,-99.99,,,-99.99,,2013-05-19 01:42:00,
2013-05-18 21:52:00,61.0,51.0,30.35,SE,137,0.0,-999.0,69,-99.99,,,-99.99,,2013-05-19 01:52:00,
2013-05-18 22:02:00,61.0,50.0,30.35,SE,137,1.0,-999.0,68,-99.99,,,-99.99,,2013-05-19 02:02:00,
2013-05-18 22:11:00,61.0,50.0,30.35,SE,137,1.0,-999.0,68,-99.99,,,-99.99,,2013-05-19 02:11:00,
2013-05-18 22:22:00,61.0,50.0,30.34,SE,137,3.0,-999.0,68,-99.99,,,-99.99,,2013-05-19 02:22:00,
2013-05-18 22:32:00,61.0,50.0,30.34,SE,137,4.0,-999.0,67,-99.99,,,-99.99,,2013-05-19 02:32:00,
2013-05-18 22:42:00,61.0,50.0,30.34,SE,137,4.0,-999.0,67,-99.99,,,-99.99,,2013-05-19 02:42:00,
2013-05-18 22:52:00,61.0,50.0,30.34,SE,137,2.0,-999.0,67,-99.99,,,-99.99,,2013-05-19 02:52:00,
2013-05-18 23:01:00,61.0,50.0,30.34,SE,137,0.0,-999.0,66,-99.99,,,-99.99,,2013-05-19 03:01:00,
2013-05-18 23:11:00,61.0,50.0,30.34,SE,137,0.0,-999.0,66,-99.99,,,-99.99,,2013-05-19 03:11:00,
2013-05-18 23:22:00,61.0,49.0,30.33,SE,137,0.0,-999.0,65,-99.99,,,-99.99,,2013-05-19 03:22:00,
2013-05-18 23:33:00,61.0,48.0,30.33,SE,137,3.0,-999.0,63,-99.99,,,-99.99,,2013-05-19 03:33:00,
2013-05-18 23:42:00,61.0,48.0,30.33,SE,137,3.0,-999.0,63,-99.99,,,-99.99,,2013-05-19 03:42:00,
2013-05-18 23:53:00,61.0,48.0,30.33,SE,137,3.0,-999.0,63,-99.99,,,-99.99,,2013-05-19 03:53:00,